Year,Month,Day,Hour,Minute,Value (Times are PST for temperature in C)
2020,08,18,00,00,19.20
2020,08,18,00,01,19.20
2020,08,18,00,02,19.20
2020,08,18,00,03,19.10
2020,08,18,00,04,19.10
2020,08,18,00,05,19.10
2020,08,18,00,06,19.10
2020,08,18,00,07,19.00
2020,08,18,00,08,19.00
2020,08,18,00,09,19.00
2020,08,18,00,10,19.00
2020,08,18,00,11,18.90
2020,08,18,00,12,18.90
2020,08,18,00,13,18.90
2020,08,18,00,14,18.90
2020,08,18,00,15,18.90
2020,08,18,00,16,18.80
2020,08,18,00,17,18.80
2020,08,18,00,18,18.80
2020,08,18,00,19,18.80
2020,08,18,00,20,18.80
2020,08,18,00,21,18.70
2020,08,18,00,22,18.70
2020,08,18,00,23,18.70
2020,08,18,00,24,18.70
2020,08,18,00,25,18.60
2020,08,18,00,26,18.60
2020,08,18,00,27,18.60
2020,08,18,00,28,18.60
2020,08,18,00,29,18.50
2020,08,18,00,30,18.50
2020,08,18,00,31,18.50
2020,08,18,00,32,18.50
2020,08,18,00,33,18.50
2020,08,18,00,34,18.50
2020,08,18,00,35,18.50
2020,08,18,00,36,18.50
2020,08,18,00,37,18.40
2020,08,18,00,38,18.40
2020,08,18,00,39,18.40
2020,08,18,00,40,18.40
2020,08,18,00,41,18.40
2020,08,18,00,42,18.40
2020,08,18,00,43,18.40
2020,08,18,00,44,18.40
2020,08,18,00,45,18.40
2020,08,18,00,46,18.40
2020,08,18,00,47,18.40
2020,08,18,00,48,18.40
2020,08,18,00,49,18.40
2020,08,18,00,50,18.40
2020,08,18,00,51,18.40
2020,08,18,00,52,18.40
2020,08,18,00,53,18.40
2020,08,18,00,54,18.30
2020,08,18,00,55,18.30
2020,08,18,00,56,18.30
2020,08,18,00,57,18.30
2020,08,18,00,58,18.30
2020,08,18,00,59,18.30
2020,08,18,01,00,18.20
2020,08,18,01,01,18.20
2020,08,18,01,02,18.20
2020,08,18,01,03,18.10
2020,08,18,01,04,18.10
2020,08,18,01,05,18.10
2020,08,18,01,06,18.00
2020,08,18,01,07,18.00
2020,08,18,01,08,18.00
2020,08,18,01,09,18.00
2020,08,18,01,10,17.90
2020,08,18,01,11,17.90
2020,08,18,01,12,17.90
2020,08,18,01,13,17.90
2020,08,18,01,14,17.90
2020,08,18,01,15,17.90
2020,08,18,01,16,17.90
2020,08,18,01,17,17.90
2020,08,18,01,18,17.90
2020,08,18,01,19,17.90
2020,08,18,01,20,17.90
2020,08,18,01,21,17.90
2020,08,18,01,22,17.90
2020,08,18,01,23,17.90
2020,08,18,01,24,17.90
2020,08,18,01,25,17.90
2020,08,18,01,26,17.80
2020,08,18,01,27,17.80
2020,08,18,01,28,17.80
2020,08,18,01,29,17.80
2020,08,18,01,30,17.80
2020,08,18,01,31,17.80
2020,08,18,01,32,17.80
2020,08,18,01,33,17.80
2020,08,18,01,34,17.70
2020,08,18,01,35,17.70
2020,08,18,01,36,17.70
2020,08,18,01,37,17.70
2020,08,18,01,38,17.70
2020,08,18,01,39,17.70
2020,08,18,01,40,17.70
2020,08,18,01,41,17.70
2020,08,18,01,42,17.70
2020,08,18,01,43,17.70
2020,08,18,01,44,17.70
2020,08,18,01,45,17.70
2020,08,18,01,46,17.70
2020,08,18,01,47,17.60
2020,08,18,01,48,17.60
2020,08,18,01,49,17.60
2020,08,18,01,50,17.60
2020,08,18,01,51,17.60
2020,08,18,01,52,17.60
2020,08,18,01,53,17.50
2020,08,18,01,54,17.50
2020,08,18,01,55,17.50
2020,08,18,01,56,17.50
2020,08,18,01,57,17.50
2020,08,18,01,58,17.40
2020,08,18,01,59,17.40
2020,08,18,02,00,17.40
2020,08,18,02,01,17.40
2020,08,18,02,02,17.40
2020,08,18,02,03,17.40
2020,08,18,02,04,17.30
2020,08,18,02,05,17.30
2020,08,18,02,06,17.30
2020,08,18,02,07,17.30
2020,08,18,02,08,17.30
2020,08,18,02,09,17.30
2020,08,18,02,10,17.30
2020,08,18,02,11,17.20
2020,08,18,02,12,17.20
2020,08,18,02,13,17.20
2020,08,18,02,14,17.20
2020,08,18,02,15,17.20
2020,08,18,02,16,17.20
2020,08,18,02,17,17.20
2020,08,18,02,18,17.20
2020,08,18,02,19,17.10
2020,08,18,02,20,17.10
2020,08,18,02,21,17.10
2020,08,18,02,22,17.10
2020,08,18,02,23,17.10
2020,08,18,02,24,17.10
2020,08,18,02,25,17.10
2020,08,18,02,26,17.00
2020,08,18,02,27,17.00
2020,08,18,02,28,17.00
2020,08,18,02,29,17.00
2020,08,18,02,30,17.00
2020,08,18,02,31,17.00
2020,08,18,02,32,17.00
2020,08,18,02,33,17.00
2020,08,18,02,34,17.00
2020,08,18,02,35,16.90
2020,08,18,02,36,16.90
2020,08,18,02,37,16.90
2020,08,18,02,38,16.90
2020,08,18,02,39,16.90
2020,08,18,02,40,16.80
2020,08,18,02,41,16.80
2020,08,18,02,42,16.80
2020,08,18,02,43,16.80
2020,08,18,02,44,16.80
2020,08,18,02,45,16.80
2020,08,18,02,46,16.80
2020,08,18,02,47,16.70
2020,08,18,02,48,16.70
2020,08,18,02,49,16.70
2020,08,18,02,50,16.70
2020,08,18,02,51,16.70
2020,08,18,02,52,16.70
2020,08,18,02,53,16.60
2020,08,18,02,54,16.60
2020,08,18,02,55,16.60
2020,08,18,02,56,16.60
2020,08,18,02,57,16.60
2020,08,18,02,58,16.60
2020,08,18,02,59,16.60
2020,08,18,03,00,16.60
2020,08,18,03,01,16.60
2020,08,18,03,02,16.60
2020,08,18,03,03,16.60
2020,08,18,03,04,16.60
2020,08,18,03,05,16.60
2020,08,18,03,06,16.60
2020,08,18,03,07,16.60
2020,08,18,03,08,16.60
2020,08,18,03,09,16.60
2020,08,18,03,10,16.60
2020,08,18,03,11,16.60
2020,08,18,03,12,16.60
2020,08,18,03,13,16.60
2020,08,18,03,14,16.60
2020,08,18,03,15,16.60
2020,08,18,03,16,16.60
2020,08,18,03,17,16.60
2020,08,18,03,18,16.60
2020,08,18,03,19,16.60
2020,08,18,03,20,16.60
2020,08,18,03,21,16.60
2020,08,18,03,22,16.60
2020,08,18,03,23,16.60
2020,08,18,03,24,16.50
2020,08,18,03,25,16.50
2020,08,18,03,26,16.50
2020,08,18,03,27,16.50
2020,08,18,03,28,16.50
2020,08,18,03,29,16.50
2020,08,18,03,30,16.50
2020,08,18,03,31,16.50
2020,08,18,03,32,16.40
2020,08,18,03,33,16.40
2020,08,18,03,34,16.40
2020,08,18,03,35,16.40
2020,08,18,03,36,16.40
2020,08,18,03,37,16.40
2020,08,18,03,38,16.40
2020,08,18,03,39,16.40
2020,08,18,03,40,16.40
2020,08,18,03,41,16.50
2020,08,18,03,42,16.50
2020,08,18,03,43,16.60
2020,08,18,03,44,16.60
2020,08,18,03,45,16.60
2020,08,18,03,46,16.60
2020,08,18,03,47,16.60
2020,08,18,03,48,16.60
2020,08,18,03,49,16.60
2020,08,18,03,50,16.60
2020,08,18,03,51,16.60
2020,08,18,03,52,16.60
2020,08,18,03,53,16.50
2020,08,18,03,54,16.50
2020,08,18,03,55,16.50
2020,08,18,03,56,16.40
2020,08,18,03,57,16.40
2020,08,18,03,58,16.40
2020,08,18,03,59,16.40
2020,08,18,04,00,16.40
2020,08,18,04,01,16.30
2020,08,18,04,02,16.30
2020,08,18,04,03,16.30
2020,08,18,04,04,16.30
2020,08,18,04,05,16.30
2020,08,18,04,06,16.30
2020,08,18,04,07,16.30
2020,08,18,04,08,16.30
2020,08,18,04,09,16.30
2020,08,18,04,10,16.30
2020,08,18,04,11,16.30
2020,08,18,04,12,16.20
2020,08,18,04,13,16.20
2020,08,18,04,14,16.20
2020,08,18,04,15,16.20
2020,08,18,04,16,16.20
2020,08,18,04,17,16.20
2020,08,18,04,18,16.20
2020,08,18,04,19,16.20
2020,08,18,04,20,16.20
2020,08,18,04,21,16.20
2020,08,18,04,22,16.20
2020,08,18,04,23,16.20
2020,08,18,04,24,16.30
2020,08,18,04,25,16.30
2020,08,18,04,26,16.40
2020,08,18,04,27,16.50
2020,08,18,04,28,16.60
2020,08,18,04,29,16.70
2020,08,18,04,30,16.80
2020,08,18,04,31,16.90
2020,08,18,04,32,17.00
2020,08,18,04,33,17.10
2020,08,18,04,34,17.20
2020,08,18,04,35,17.20
2020,08,18,04,36,17.30
2020,08,18,04,37,17.40
2020,08,18,04,38,17.40
2020,08,18,04,39,17.50
2020,08,18,04,40,17.50
2020,08,18,04,41,17.60
2020,08,18,04,42,17.60
2020,08,18,04,43,17.60
2020,08,18,04,44,17.70
2020,08,18,04,45,17.70
2020,08,18,04,46,17.70
2020,08,18,04,47,17.70
2020,08,18,04,48,17.70
2020,08,18,04,49,17.80
2020,08,18,04,50,17.80
2020,08,18,04,51,17.80
2020,08,18,04,52,17.80
2020,08,18,04,53,17.90
2020,08,18,04,54,17.90
2020,08,18,04,55,18.00
2020,08,18,04,56,18.10
2020,08,18,04,57,18.10
2020,08,18,04,58,18.20
2020,08,18,04,59,18.30
2020,08,18,05,00,18.40
2020,08,18,05,01,18.50
2020,08,18,05,02,18.50
2020,08,18,05,03,18.60
2020,08,18,05,04,18.60
2020,08,18,05,05,18.70
2020,08,18,05,06,18.70
2020,08,18,05,07,18.70
2020,08,18,05,08,18.80
2020,08,18,05,09,18.80
2020,08,18,05,10,18.80
2020,08,18,05,11,18.80
2020,08,18,05,12,18.80
2020,08,18,05,13,18.80
2020,08,18,05,14,18.90
2020,08,18,05,15,18.90
2020,08,18,05,16,18.90
2020,08,18,05,17,18.90
2020,08,18,05,18,18.90
2020,08,18,05,19,18.90
2020,08,18,05,20,19.00
2020,08,18,05,21,19.00
2020,08,18,05,22,19.00
2020,08,18,05,23,19.10
2020,08,18,05,24,19.10
2020,08,18,05,25,19.10
2020,08,18,05,26,19.10
2020,08,18,05,27,19.20
2020,08,18,05,28,19.20
2020,08,18,05,29,19.30
2020,08,18,05,30,19.30
2020,08,18,05,31,19.30
2020,08,18,05,32,19.30
2020,08,18,05,33,19.40
2020,08,18,05,34,19.40
2020,08,18,05,35,19.40
2020,08,18,05,36,19.40
2020,08,18,05,37,19.40
2020,08,18,05,38,19.40
2020,08,18,05,39,19.40
2020,08,18,05,40,19.40
2020,08,18,05,41,19.40
2020,08,18,05,42,19.40
2020,08,18,05,43,19.40
2020,08,18,05,44,19.50
2020,08,18,05,45,19.50
2020,08,18,05,46,19.50
2020,08,18,05,47,19.50
2020,08,18,05,48,19.50
2020,08,18,05,49,19.60
2020,08,18,05,50,19.60
2020,08,18,05,51,19.60
2020,08,18,05,52,19.60
2020,08,18,05,53,19.60
2020,08,18,05,54,19.60
2020,08,18,05,55,19.60
2020,08,18,05,56,19.60
2020,08,18,05,57,19.60
2020,08,18,05,58,19.60
2020,08,18,05,59,19.60
2020,08,18,06,00,19.60
2020,08,18,06,01,19.60
2020,08,18,06,02,19.60
2020,08,18,06,03,19.60
2020,08,18,06,04,19.60
2020,08,18,06,05,19.60
2020,08,18,06,06,19.60
2020,08,18,06,07,19.60
2020,08,18,06,08,19.60
2020,08,18,06,09,19.60
2020,08,18,06,10,19.60
2020,08,18,06,11,19.60
2020,08,18,06,12,19.70
2020,08,18,06,13,19.70
2020,08,18,06,14,19.70
2020,08,18,06,15,19.70
2020,08,18,06,16,19.70
2020,08,18,06,17,19.70
2020,08,18,06,18,19.70
2020,08,18,06,19,19.80
2020,08,18,06,20,19.80
2020,08,18,06,21,19.80
2020,08,18,06,22,19.80
2020,08,18,06,23,19.80
2020,08,18,06,24,19.80
2020,08,18,06,25,19.80
2020,08,18,06,26,19.80
2020,08,18,06,27,19.80
2020,08,18,06,28,19.80
2020,08,18,06,29,19.80
2020,08,18,06,30,19.80
2020,08,18,06,31,19.80
2020,08,18,06,32,19.80
2020,08,18,06,33,19.80
2020,08,18,06,34,19.80
2020,08,18,06,35,19.80
2020,08,18,06,36,19.80
2020,08,18,06,37,19.80
2020,08,18,06,38,19.80
2020,08,18,06,39,19.80
2020,08,18,06,40,19.80
2020,08,18,06,41,19.80
2020,08,18,06,42,19.80
2020,08,18,06,43,19.80
2020,08,18,06,44,19.80
2020,08,18,06,45,19.80
2020,08,18,06,46,19.80
2020,08,18,06,47,19.80
2020,08,18,06,48,19.80
2020,08,18,06,49,19.80
2020,08,18,06,50,19.90
2020,08,18,06,51,19.90
2020,08,18,06,52,19.90
2020,08,18,06,53,19.90
2020,08,18,06,54,19.90
2020,08,18,06,55,19.90
2020,08,18,06,56,19.90
2020,08,18,06,57,19.90
2020,08,18,06,58,19.90
2020,08,18,06,59,19.90
2020,08,18,07,00,20.00
2020,08,18,07,01,20.00
2020,08,18,07,02,20.00
2020,08,18,07,03,20.00
2020,08,18,07,04,20.00
2020,08,18,07,05,20.10
2020,08,18,07,06,20.10
2020,08,18,07,07,20.10
2020,08,18,07,08,20.10
2020,08,18,07,09,20.10
2020,08,18,07,10,20.10
2020,08,18,07,11,20.10
2020,08,18,07,12,20.10
2020,08,18,07,13,20.10
2020,08,18,07,14,20.20
2020,08,18,07,15,20.20
2020,08,18,07,16,20.20
2020,08,18,07,17,20.20
2020,08,18,07,18,20.20
2020,08,18,07,19,20.20
2020,08,18,07,20,20.20
2020,08,18,07,21,20.30
2020,08,18,07,22,20.30
2020,08,18,07,23,20.30
2020,08,18,07,24,20.30
2020,08,18,07,25,20.30
2020,08,18,07,26,20.30
2020,08,18,07,27,20.30
2020,08,18,07,28,20.30
2020,08,18,07,29,20.30
2020,08,18,07,30,20.30
2020,08,18,07,31,20.30
2020,08,18,07,32,20.30
2020,08,18,07,33,20.30
2020,08,18,07,34,20.30
2020,08,18,07,35,20.30
2020,08,18,07,36,20.30
2020,08,18,07,37,20.30
2020,08,18,07,38,20.30
2020,08,18,07,39,20.30
2020,08,18,07,40,20.30
2020,08,18,07,41,20.30
2020,08,18,07,42,20.30
2020,08,18,07,43,20.30
2020,08,18,07,44,20.30
2020,08,18,07,45,20.30
2020,08,18,07,46,20.30
2020,08,18,07,47,20.30
2020,08,18,07,48,20.30
2020,08,18,07,49,20.30
2020,08,18,07,50,20.30
2020,08,18,07,51,20.30
2020,08,18,07,52,20.30
2020,08,18,07,53,20.30
2020,08,18,07,54,20.30
2020,08,18,07,55,20.30
2020,08,18,07,56,20.30
2020,08,18,07,57,20.30
2020,08,18,07,58,20.30
2020,08,18,07,59,20.30
2020,08,18,08,00,20.30
2020,08,18,08,01,20.30
2020,08,18,08,02,20.30
2020,08,18,08,03,20.30
2020,08,18,08,04,20.30
2020,08,18,08,05,20.30
2020,08,18,08,06,20.30
2020,08,18,08,07,20.30
2020,08,18,08,08,20.30
2020,08,18,08,09,20.30
2020,08,18,08,10,20.30
2020,08,18,08,11,20.30
2020,08,18,08,12,20.30
2020,08,18,08,13,20.30
2020,08,18,08,14,20.40
2020,08,18,08,15,20.40
2020,08,18,08,16,20.40
2020,08,18,08,17,20.40
2020,08,18,08,18,20.40
2020,08,18,08,19,20.40
2020,08,18,08,20,20.50
2020,08,18,08,21,20.50
2020,08,18,08,22,20.50
2020,08,18,08,23,20.60
2020,08,18,08,24,20.60
2020,08,18,08,25,20.60
2020,08,18,08,26,20.60
2020,08,18,08,27,20.60
2020,08,18,08,28,20.60
2020,08,18,08,29,20.60
2020,08,18,08,30,20.70
2020,08,18,08,31,20.70
2020,08,18,08,32,20.70
2020,08,18,08,33,20.70
2020,08,18,08,34,20.70
2020,08,18,08,35,20.80
2020,08,18,08,36,20.80
2020,08,18,08,37,20.80
2020,08,18,08,38,20.80
2020,08,18,08,39,20.90
2020,08,18,08,40,20.90
2020,08,18,08,41,20.90
2020,08,18,08,42,21.00
2020,08,18,08,43,21.00
2020,08,18,08,44,21.00
2020,08,18,08,45,21.10
2020,08,18,08,46,21.10
2020,08,18,08,47,21.10
2020,08,18,08,48,21.10
2020,08,18,08,49,21.10
2020,08,18,08,50,21.20
2020,08,18,08,51,21.20
2020,08,18,08,52,21.20
2020,08,18,08,53,21.30
2020,08,18,08,54,21.30
2020,08,18,08,55,21.30
2020,08,18,08,56,21.30
2020,08,18,08,57,21.40
2020,08,18,08,58,21.40
2020,08,18,08,59,21.40
2020,08,18,09,00,21.40
2020,08,18,09,01,21.40
2020,08,18,09,02,21.40
2020,08,18,09,03,21.30
2020,08,18,09,04,21.30
2020,08,18,09,05,21.20
2020,08,18,09,06,21.20
2020,08,18,09,07,21.20
2020,08,18,09,08,21.20
2020,08,18,09,09,21.20
2020,08,18,09,10,21.10
2020,08,18,09,11,21.10
2020,08,18,09,12,21.00
2020,08,18,09,13,21.00
2020,08,18,09,14,21.00
2020,08,18,09,15,21.00
2020,08,18,09,16,21.00
2020,08,18,09,17,20.90
2020,08,18,09,18,20.90
2020,08,18,09,19,20.90
2020,08,18,09,20,20.90
2020,08,18,09,21,21.00
2020,08,18,09,22,21.00
2020,08,18,09,23,21.10
2020,08,18,09,24,21.10
2020,08,18,09,25,21.10
2020,08,18,09,26,21.10
2020,08,18,09,27,21.10
2020,08,18,09,28,21.10
2020,08,18,09,29,21.10
2020,08,18,09,30,21.20
2020,08,18,09,31,21.20
2020,08,18,09,32,21.20
2020,08,18,09,33,21.20
2020,08,18,09,34,21.20
2020,08,18,09,35,21.20
2020,08,18,09,36,21.20
2020,08,18,09,37,21.20
2020,08,18,09,38,21.10
2020,08,18,09,39,21.10
2020,08,18,09,40,21.00
2020,08,18,09,41,21.00
2020,08,18,09,42,21.00
2020,08,18,09,43,21.00
2020,08,18,09,44,21.00
2020,08,18,09,45,21.10
2020,08,18,09,46,21.10
2020,08,18,09,47,21.10
2020,08,18,09,48,21.10
2020,08,18,09,49,21.10
2020,08,18,09,50,21.10
2020,08,18,09,51,21.10
2020,08,18,09,52,21.10
2020,08,18,09,53,21.10
2020,08,18,09,54,21.10
2020,08,18,09,55,21.10
2020,08,18,09,56,21.10
2020,08,18,09,57,21.20
2020,08,18,09,58,21.20
2020,08,18,09,59,21.10
2020,08,18,10,00,21.10
2020,08,18,10,01,21.10
2020,08,18,10,02,21.10
2020,08,18,10,03,21.20
2020,08,18,10,04,21.20
2020,08,18,10,05,21.30
2020,08,18,10,06,21.20
2020,08,18,10,07,21.20
2020,08,18,10,08,21.20
2020,08,18,10,09,21.30
2020,08,18,10,10,21.30
2020,08,18,10,11,21.30
2020,08,18,10,12,21.20
2020,08,18,10,13,21.30
2020,08,18,10,14,21.30
2020,08,18,10,15,21.30
2020,08,18,10,16,21.30
2020,08,18,10,17,21.40
2020,08,18,10,18,21.40
2020,08,18,10,19,21.50
2020,08,18,10,20,21.60
2020,08,18,10,21,21.70
2020,08,18,10,22,21.70
2020,08,18,10,23,21.80
2020,08,18,10,24,21.80
2020,08,18,10,25,21.90
2020,08,18,10,26,22.00
2020,08,18,10,27,22.10
2020,08,18,10,28,22.10
2020,08,18,10,29,22.10
2020,08,18,10,30,22.20
2020,08,18,10,31,22.20
2020,08,18,10,32,22.20
2020,08,18,10,33,22.20
2020,08,18,10,34,22.20
2020,08,18,10,35,22.10
2020,08,18,10,36,22.10
2020,08,18,10,37,22.10
2020,08,18,10,38,22.10
2020,08,18,10,39,22.10
2020,08,18,10,40,22.20
2020,08,18,10,41,22.20
2020,08,18,10,42,22.30
2020,08,18,10,43,22.30
2020,08,18,10,44,22.30
2020,08,18,10,45,22.30
2020,08,18,10,46,22.30
2020,08,18,10,47,22.30
2020,08,18,10,48,22.20
2020,08,18,10,49,22.20
2020,08,18,10,50,22.20
2020,08,18,10,51,22.20
2020,08,18,10,52,22.20
2020,08,18,10,53,22.20
2020,08,18,10,54,22.20
2020,08,18,10,55,22.20
2020,08,18,10,56,22.30
2020,08,18,10,57,22.30
2020,08,18,10,58,22.30
2020,08,18,10,59,22.40
2020,08,18,11,00,22.40
2020,08,18,11,01,22.40
2020,08,18,11,02,22.40
2020,08,18,11,03,22.40
2020,08,18,11,04,22.40
2020,08,18,11,05,22.50
2020,08,18,11,06,22.50
2020,08,18,11,07,22.40
2020,08,18,11,08,22.40
2020,08,18,11,09,22.40
2020,08,18,11,10,22.50
2020,08,18,11,11,22.50
2020,08,18,11,12,22.50
2020,08,18,11,13,22.60
2020,08,18,11,14,22.60
2020,08,18,11,15,22.70
2020,08,18,11,16,22.70
2020,08,18,11,17,22.70
2020,08,18,11,18,22.70
2020,08,18,11,19,22.70
2020,08,18,11,20,22.70
2020,08,18,11,21,22.70
2020,08,18,11,22,22.70
2020,08,18,11,23,22.70
2020,08,18,11,24,22.70
2020,08,18,11,25,22.70
2020,08,18,11,26,22.70
2020,08,18,11,27,22.70
2020,08,18,11,28,22.70
2020,08,18,11,29,22.50
2020,08,18,11,30,22.40
2020,08,18,11,31,22.30
2020,08,18,11,32,22.30
2020,08,18,11,33,22.30
2020,08,18,11,34,22.40
2020,08,18,11,35,22.40
2020,08,18,11,36,22.40
2020,08,18,11,37,22.40
2020,08,18,11,38,22.50
2020,08,18,11,39,22.60
2020,08,18,11,40,22.60
2020,08,18,11,41,22.70
2020,08,18,11,42,22.80
2020,08,18,11,43,22.80
2020,08,18,11,44,22.80
2020,08,18,11,45,22.80
2020,08,18,11,46,22.80
2020,08,18,11,47,22.80
2020,08,18,11,48,22.70
2020,08,18,11,49,22.70
2020,08,18,11,50,22.60
2020,08,18,11,51,22.60
2020,08,18,11,52,22.60
2020,08,18,11,53,22.60
2020,08,18,11,54,22.50
2020,08,18,11,55,22.50
2020,08,18,11,56,22.50
2020,08,18,11,57,22.50
2020,08,18,11,58,22.50
2020,08,18,11,59,22.40
2020,08,18,12,00,22.50
2020,08,18,12,01,22.50
2020,08,18,12,02,22.50
2020,08,18,12,03,22.60
2020,08,18,12,04,22.60
2020,08,18,12,05,22.60
2020,08,18,12,06,22.60
2020,08,18,12,07,22.60
2020,08,18,12,08,22.60
2020,08,18,12,09,22.50
2020,08,18,12,10,22.50
2020,08,18,12,11,22.50
2020,08,18,12,12,22.60
2020,08,18,12,13,22.60
2020,08,18,12,14,22.60
2020,08,18,12,15,22.60
2020,08,18,12,16,22.60
2020,08,18,12,17,22.50
2020,08,18,12,18,22.60
2020,08,18,12,19,22.70
2020,08,18,12,20,22.70
2020,08,18,12,21,22.80
2020,08,18,12,22,22.90
2020,08,18,12,23,22.90
2020,08,18,12,24,23.00
2020,08,18,12,25,23.00
2020,08,18,12,26,23.10
2020,08,18,12,27,23.20
2020,08,18,12,28,23.20
2020,08,18,12,29,23.20
2020,08,18,12,30,23.20
2020,08,18,12,31,23.20
2020,08,18,12,32,23.30
2020,08,18,12,33,23.30
2020,08,18,12,34,23.40
2020,08,18,12,35,23.30
2020,08,18,12,36,23.30
2020,08,18,12,37,23.30
2020,08,18,12,38,23.20
2020,08,18,12,39,23.20
2020,08,18,12,40,23.20
2020,08,18,12,41,23.10
2020,08,18,12,42,23.10
2020,08,18,12,43,23.10
2020,08,18,12,44,23.20
2020,08,18,12,45,23.30
2020,08,18,12,46,23.30
2020,08,18,12,47,23.40
2020,08,18,12,48,23.40
2020,08,18,12,49,23.50
2020,08,18,12,50,23.40
2020,08,18,12,51,23.40
2020,08,18,12,52,23.40
2020,08,18,12,53,23.50
2020,08,18,12,54,23.50
2020,08,18,12,55,23.50
2020,08,18,12,56,23.60
2020,08,18,12,57,23.60
2020,08,18,12,58,23.50
2020,08,18,12,59,23.50
2020,08,18,13,00,23.40
2020,08,18,13,01,23.50
2020,08,18,13,02,23.60
2020,08,18,13,03,23.60
2020,08,18,13,04,23.60
2020,08,18,13,05,23.70
2020,08,18,13,06,23.80
2020,08,18,13,07,23.80
2020,08,18,13,08,23.80
2020,08,18,13,09,23.80
2020,08,18,13,10,23.80
2020,08,18,13,11,23.80
2020,08,18,13,12,23.80
2020,08,18,13,13,23.80
2020,08,18,13,14,23.80
2020,08,18,13,15,23.80
2020,08,18,13,16,23.80
2020,08,18,13,17,23.70
2020,08,18,13,18,23.70
2020,08,18,13,19,23.80
2020,08,18,13,20,23.80
2020,08,18,13,21,23.80
2020,08,18,13,22,23.80
2020,08,18,13,23,23.80
2020,08,18,13,24,23.80
2020,08,18,13,25,23.80
2020,08,18,13,26,23.90
2020,08,18,13,27,23.90
2020,08,18,13,28,23.90
2020,08,18,13,29,23.80
2020,08,18,13,30,23.80
2020,08,18,13,31,23.80
2020,08,18,13,32,23.90
2020,08,18,13,33,23.90
2020,08,18,13,34,23.80
2020,08,18,13,35,23.80
2020,08,18,13,36,23.90
2020,08,18,13,37,24.00
2020,08,18,13,38,24.10
2020,08,18,13,39,24.20
2020,08,18,13,40,24.30
2020,08,18,13,41,24.20
2020,08,18,13,42,24.20
2020,08,18,13,43,24.30
2020,08,18,13,44,24.30
2020,08,18,13,45,24.30
2020,08,18,13,46,24.20
2020,08,18,13,47,24.10
2020,08,18,13,48,24.00
2020,08,18,13,49,23.90
2020,08,18,13,50,23.80
2020,08,18,13,51,23.80
2020,08,18,13,52,23.80
2020,08,18,13,53,23.90
2020,08,18,13,54,24.00
2020,08,18,13,55,24.20
2020,08,18,13,56,24.30
2020,08,18,13,57,24.40
2020,08,18,13,58,24.40
2020,08,18,13,59,24.40
2020,08,18,14,00,24.40
2020,08,18,14,01,24.30
2020,08,18,14,02,24.30
2020,08,18,14,03,24.30
2020,08,18,14,04,24.20
2020,08,18,14,05,24.20
2020,08,18,14,06,24.10
2020,08,18,14,07,24.00
2020,08,18,14,08,23.90
2020,08,18,14,09,23.90
2020,08,18,14,10,23.90
2020,08,18,14,11,23.80
2020,08,18,14,12,23.70
2020,08,18,14,13,23.60
2020,08,18,14,14,23.50
2020,08,18,14,15,23.40
2020,08,18,14,16,23.40
2020,08,18,14,17,23.50
2020,08,18,14,18,23.50
2020,08,18,14,19,23.50
2020,08,18,14,20,23.50
2020,08,18,14,21,23.50
2020,08,18,14,22,23.50
2020,08,18,14,23,23.50
2020,08,18,14,24,23.50
2020,08,18,14,25,23.40
2020,08,18,14,26,23.40
2020,08,18,14,27,23.40
2020,08,18,14,28,23.30
2020,08,18,14,29,23.30
2020,08,18,14,30,23.20
2020,08,18,14,31,23.10
2020,08,18,14,32,23.00
2020,08,18,14,33,23.00
2020,08,18,14,34,22.90
2020,08,18,14,35,22.80
2020,08,18,14,36,22.70
2020,08,18,14,37,22.70
2020,08,18,14,38,22.70
2020,08,18,14,39,22.70
2020,08,18,14,40,22.80
2020,08,18,14,41,22.90
2020,08,18,14,42,23.00
2020,08,18,14,43,23.00
2020,08,18,14,44,23.10
2020,08,18,14,45,23.10
2020,08,18,14,46,23.10
2020,08,18,14,47,23.20
2020,08,18,14,48,23.20
2020,08,18,14,49,23.30
2020,08,18,14,50,23.40
2020,08,18,14,51,23.50
2020,08,18,14,52,23.60
2020,08,18,14,53,23.60
2020,08,18,14,54,23.60
2020,08,18,14,55,23.60
2020,08,18,14,56,23.50
2020,08,18,14,57,23.40
2020,08,18,14,58,23.30
2020,08,18,14,59,23.30
2020,08,18,15,00,23.20
2020,08,18,15,01,23.10
2020,08,18,15,02,23.10
2020,08,18,15,03,23.10
2020,08,18,15,04,23.10
2020,08,18,15,05,23.10
2020,08,18,15,06,23.10
2020,08,18,15,07,23.20
2020,08,18,15,08,23.20
2020,08,18,15,09,23.20
2020,08,18,15,10,23.10
2020,08,18,15,11,23.10
2020,08,18,15,12,23.10
2020,08,18,15,13,23.10
2020,08,18,15,14,23.20
2020,08,18,15,15,23.20
2020,08,18,15,16,23.30
2020,08,18,15,17,23.30
2020,08,18,15,18,23.20
2020,08,18,15,19,23.10
2020,08,18,15,20,23.10
2020,08,18,15,21,23.10
2020,08,18,15,22,23.10
2020,08,18,15,23,23.10
2020,08,18,15,24,23.10
2020,08,18,15,25,23.10
2020,08,18,15,26,23.10
2020,08,18,15,27,23.10
2020,08,18,15,28,23.20
2020,08,18,15,29,23.30
2020,08,18,15,30,23.40
2020,08,18,15,31,23.40
2020,08,18,15,32,23.50
2020,08,18,15,33,23.60
2020,08,18,15,34,23.70
2020,08,18,15,35,23.70
2020,08,18,15,36,23.70
2020,08,18,15,37,23.70
2020,08,18,15,38,23.70
2020,08,18,15,39,23.50
2020,08,18,15,40,23.30
2020,08,18,15,41,23.20
2020,08,18,15,42,23.10
2020,08,18,15,43,23.00
2020,08,18,15,44,23.00
2020,08,18,15,45,23.00
2020,08,18,15,46,22.90
2020,08,18,15,47,22.80
2020,08,18,15,48,22.80
2020,08,18,15,49,22.80
2020,08,18,15,50,22.80
2020,08,18,15,51,22.70
2020,08,18,15,52,22.70
2020,08,18,15,53,22.70
2020,08,18,15,54,22.70
2020,08,18,15,55,22.70
2020,08,18,15,56,22.60
2020,08,18,15,57,22.60
2020,08,18,15,58,22.60
2020,08,18,15,59,22.60
2020,08,18,16,00,22.60
2020,08,18,16,01,22.60
2020,08,18,16,02,22.70
2020,08,18,16,03,22.70
2020,08,18,16,04,22.70
2020,08,18,16,05,22.70
2020,08,18,16,06,22.60
2020,08,18,16,07,22.60
2020,08,18,16,08,22.50
2020,08,18,16,09,22.50
2020,08,18,16,10,22.40
2020,08,18,16,11,22.30
2020,08,18,16,12,22.30
2020,08,18,16,13,22.40
2020,08,18,16,14,22.40
2020,08,18,16,15,22.40
2020,08,18,16,16,22.40
2020,08,18,16,17,22.50
2020,08,18,16,18,22.50
2020,08,18,16,19,22.60
2020,08,18,16,20,22.60
2020,08,18,16,21,22.70
2020,08,18,16,22,22.70
2020,08,18,16,23,22.70
2020,08,18,16,24,22.60
2020,08,18,16,25,22.60
2020,08,18,16,26,22.60
2020,08,18,16,27,22.60
2020,08,18,16,28,22.60
2020,08,18,16,29,22.50
2020,08,18,16,30,22.50
2020,08,18,16,31,22.40
2020,08,18,16,32,22.40
2020,08,18,16,33,22.40
2020,08,18,16,34,22.40
2020,08,18,16,35,22.40
2020,08,18,16,36,22.40
2020,08,18,16,37,22.40
2020,08,18,16,38,22.50
2020,08,18,16,39,22.50
2020,08,18,16,40,22.40
2020,08,18,16,41,22.30
2020,08,18,16,42,22.30
2020,08,18,16,43,22.20
2020,08,18,16,44,22.10
2020,08,18,16,45,22.00
2020,08,18,16,46,22.00
2020,08,18,16,47,22.10
2020,08,18,16,48,22.10
2020,08,18,16,49,22.10
2020,08,18,16,50,22.10
2020,08,18,16,51,22.00
2020,08,18,16,52,22.00
2020,08,18,16,53,21.90
2020,08,18,16,54,21.70
2020,08,18,16,55,21.60
2020,08,18,16,56,21.60
2020,08,18,16,57,21.60
2020,08,18,16,58,21.60
2020,08,18,16,59,21.60
2020,08,18,17,00,21.60
2020,08,18,17,01,21.50
2020,08,18,17,02,21.50
2020,08,18,17,03,21.60
2020,08,18,17,04,21.60
2020,08,18,17,05,21.60
2020,08,18,17,06,21.60
2020,08,18,17,07,21.60
2020,08,18,17,08,21.60
2020,08,18,17,09,21.60
2020,08,18,17,10,21.60
2020,08,18,17,11,21.60
2020,08,18,17,12,21.70
2020,08,18,17,13,21.70
2020,08,18,17,14,21.70
2020,08,18,17,15,21.70
2020,08,18,17,16,21.70
2020,08,18,17,17,21.70
2020,08,18,17,18,21.70
2020,08,18,17,19,21.70